Skip Page Navigation
NASA JPL Caltech
NASA Logo - Jet Propulsion Laboratory + View the NASA Portal
+ Center for Near-Earth Object Studies
JPL Home Earth Solar System Stars & Galaxies Technology
JPL Solar System Dynamics
BODIES ORBITS EPHEMERIDES TOOLS PHYSICAL DATA DISCOVERY FAQ SITE MAP
JPL Small-Body Database Browser
Search: [ help ]  
160302 (2003 FZ101)
Classification: Main-belt Asteroid          SPK-ID: 2160302
Ephemeris | Orbit Diagram | Orbital Elements | Mission Design | Physical Parameters | Discovery Circumstances | Close-Approach Data ]

[ show orbit diagram ]
Orbital Elements at Epoch 2459200.5 (2020-Dec-17.0) TDB
Reference: JPL 16 (heliocentric ecliptic J2000)
 Element Value Uncertainty (1-sigma)   Units 
e .1857268653313958 6.2428e-08  
a 2.687605040800188 1.9229e-08 au
q 2.188444581323511 1.7332e-07 au
i 13.23445199137055 6.2482e-06 deg
node 159.2754401420427 1.9908e-05 deg
peri 35.0517599286617 2.3991e-05 deg
M 5.433035591474255 1.4662e-05 deg
tp 2459176.212285640660
(2020-Nov-22.71228564)
6.5406e-05 TDB
period 1609.335521947128
4.41
1.7271e-05
4.729e-08
d
yr
n .2236948076336733 2.4007e-09 deg/d
Q 3.186765500276865 2.28e-08 au
  Orbit Determination Parameters
   # obs. used (total)      338  
   data-arc span      9465 days (25.91 yr)  
   first obs. used      1994-03-06  
   last obs. used      2020-02-03  
   planetary ephem.      DE441  
   SB-pert. ephem.      SB441-N16  
   condition code      0  
   norm. resid. RMS      .60326  
   source      ORB  
   producer      Otto Matic  
   solution date      2021-Apr-13 20:00:49  

Additional Information
 Earth MOID = 1.20243 au 
 Jupiter MOID = 1.80485 au 
 T_jup = 3.311 
[ show covariance matrix ]

Ephemeris | Orbit Diagram | Orbital Elements | Mission Design | Physical Parameters | Discovery Circumstances | Close-Approach Data ]

Physical Parameter Table
Parameter Symbol Value Units Sigma Reference Notes
absolute magnitude H 15.79   n/a E2021B55  

160302 (2003 FZ101)          Discovered 2003-Mar-31 by LINEAR at Socorro
Reference: 20070730/Numbers.arcLast Updated: 2007-08-06

[ show close-approach data ]
Ephemeris | Orbit Diagram | Orbital Elements | Mission Design | Physical Parameters | Discovery Circumstances | Close-Approach Data ]
ABOUT SSD CREDITS/AWARDS PRIVACY/COPYRIGHT GLOSSARY LINKS
FirstGov 2021-Apr-15 09:17 UT
(server date/time)  
NASA Home Page
Site Manager:   Ryan S. Park
Webmaster  Alan B. Chamberlin